Terminal Aerodrome Forecast
Issued by NWS

Home | Current Version | Previous Version | Text Only | Print | Product List | Glossary On
Versions: 1 2 3 4 5 6 7 8 9 10 11 12 13
726
FTUS42 KMHX 240530
TAFOAJ
TAF
KOAJ 240530Z 2406/2506 06008KT 5SM -SHRA OVC004
     FM241100 08008KT 5SM -SHRA SCT007 OVC010
     FM241500 12010G20KT 5SM -SHRA OVC035
     FM250000 09011G20KT 2SM +SHRA VCTS SCT007 OVC025CB
      AMD LTD TO CLD VIS AND WIND=

USA.gov is the U.S. government's official web portal to all federal, state and local government web resources and services.